Regional Weather Roundup
Issued by NWS Mobile, AL

Home | Current Version | Previous Version | Text Only | Print | Product List | Glossary On
Versions: 1 2 3 4 5 6 7 8 9 10 11 12 13 14 15 16 17 18 19 20 21 22 23 24 25 26 27 28 29 30 31 32 33 34 35 36 37 38 39 40 41 42 43 44 45 46 47 48 49 50
000
ASUS44 KMOB 310110
RWRMOB
REGIONAL WEATHER ROUNDUP
NATIONAL WEATHER SERVICE MOBILE AL
800 PM CDT SAT AUG 30 2014

NOTE: "FAIR" INDICATES FEW OR NO CLOUDS BELOW 12,000 FEET WITH NO
      SIGNIFICANT WEATHER AND/OR OBSTRUCTIONS TO VISIBILITY.

  * THESE STATIONS ARE PART OF THE UNIVERSITY OF SOUTH ALABAMA
    MESONET AND ARE NOT UNDER NWS OR FAA QUALITY CONTROL.

ALZ061>064-310200-
COASTAL ALABAMA

CITY           SKY/WX    TMP DP  RH WIND       PRES   REMARKS
MOBILE REG APT CLOUDY    78  74  87 CALM      30.08R
BROOKLEY FIELD RAIN      77  74  90 CALM      30.08R
USA CAMPUS*      N/A     75  73  94 CALM      30.06R
DOG RIVER*       N/A     77  75  94 W5        30.07R


CITY           SKY/WX    TMP DP  RH WIND       PRES   REMARKS
MOUNT VERNON*    N/A     75  73  94 CALM      30.06F
SARALAND*      NOT AVBL
BAY MINETTE*   NOT AVBL
LOXLEY*          N/A     79  75  89 CALM      30.07R
ROBERTSDALE*     N/A     77  77 100 CALM      30.07R
FAIRHOPE*        N/A     73  72  94 CALM      30.06R
ELBERTA*         N/A     82  72  69 CALM      30.06R
FOLEY*         NOT AVBL
GRAND BAY*       N/A     77  73  88 NE2       30.05R
DAUPHIN ISLND* NOT AVBL
BON SCOUR NWR* NOT AVBL
GULF SHORES    CLOUDY    83  77  82 SE6       30.06S

$$

ALZ051>060-310200-
INTERIOR SOUTHWEST AND SOUTH CENTRAL ALABAMA

CITY           SKY/WX    TMP DP  RH WIND       PRES   REMARKS
GREENVILLE     CLOUDY    78  72  81 NW6       30.10R
EVERGREEN      CLOUDY    82  74  76 CALM      30.09R
CASTLEBERRY*   NOT AVBL
ATMORE*          N/A     81  75  83 S2        30.09R
DIXIE*         NOT AVBL
ANDALUSIA/OPP  CLOUDY    85  73  67 W3        30.08R
ANDALUSIA*     NOT AVBL
FLORALA APT    CLOUDY    82  73  74 S3        30.10R
FLORALA*         N/A     79  72  78 CALM      30.06R

$$

FLZ001>006-310200-
WESTERN FLORIDA PANHANDLE

CITY           SKY/WX    TMP DP  RH WIND       PRES   REMARKS
PENSACOLA      MOCLDY    82  75  79 S7        30.07R
NAS PENSACOLA  MOCLDY    84  78  82 S9        30.06R HX  95
MILTON         MOCLDY    82  75  79 S7        30.08R
WHTNG S FIELD    N/A    N/A N/A N/A MISG      30.08R


CITY           SKY/WX    TMP DP  RH WIND       PRES   REMARKS
WALNUT HILL*   NOT AVBL
JAY*           NOT AVBL
DUKE FIELD     MOCLDY    82  76  81 S6        30.08S
CRESTVIEW      MOCLDY    83  75  77 S3        30.09R
VALPARAISO     MOCLDY    84  77  78 S6        30.07S
DESTIN         MOCLDY    87  78  74 S5        30.07S HX 100

$$

MSZ076-079-310200-
INTERIOR SOUTHEAST MISSISSIPPI

CITY           SKY/WX    TMP DP  RH WIND       PRES   REMARKS
LEAKESVILLE*     N/A     73  72  94 CALM        N/A
AGRICOLA*      NOT AVBL

$$

MARINE OBSERVATIONS

STATION/POSITION TIME  TEMP    WIND        PRES    WAVE
                       AIR SEA DIR/SP/G            HT/PER
                 (UTC) (F)     (DEG/KT/KT) (MB)    (FT/S)
PASCAGOULA       0100   79      50/  4/  5 1017.6R
PETIT BOIS ISLND 0100   81     350/  6/  7 1017.9R
GRAND BAY        0000   81     290/  4     1018.0S
KATRINA CUT      0000   85     170/ 12     1018.0S
CEDAR POINT      0000   84     170/ 12     1017.3F
E DAUPHIN ISLAND 0000   85     150/ 13/ 14 1017.4R
MIDDLE BAY LIGHT 0000   85     170/ 13     1016.9S
USCG MOBILE BAY  0100   78 86  270/  2/  3 1016.9R
STATE DOCKS      0100   79 85              1017.8S
MEAHER PARK      0000   78     110/  4     1017.6R
WEEKS BAY        0000   84                   N/A
FORT MORGAN      0100   85     170/ 13/ 14 1017.3R
12 S ORANGE BCH  0100   85 86  160/ 12/ 14 1017.7R   3/ 6
PENSACOLA BAY    0100   86 85  180/  4/  8 1018.3S
64 S DAUPHIN ISL 0100   85     160/ 14       N/A
67 S FORT MORGAN 2300   84                 1017.3R

$$

SELECTED LOCATIONS ACROSS THE REGION

CITY           SKY/WX    TMP DP  RH WIND       PRES   REMARKS
NEW ORLEANS    LGT RAIN  77  74  90 CALM      30.06R
GULFPORT       CLOUDY    76  74  93 NE3       30.04S
PASCAGOULA AP  CLOUDY    76  74  93 CALM      30.06S
PASCAGOULA*      N/A     79  73  83 CALM      30.05R
HATTIESBURG    CLOUDY    76  74  93 S3        30.06S
LAUREL         CLOUDY    73  70  88 S3        30.07R
MERIDIAN       MOCLDY    73  71  93 S5        30.06R
JACKSON        CLOUDY    75  73  93 S6        30.04R
MONTGOMERY     CLOUDY    77  73  87 W5        30.09S
TROY           CLOUDY    77  75  93 CALM      30.10R
KINSTON*       NOT AVBL
GENEVA*          N/A     82  73  74 CALM      30.09R
ASHFORD*       NOT AVBL
DOTHAN         MOCLDY    82  72  71 SW3       30.12R
PANAMA CITY    MOCLDY    84  77  79 S3        30.07S

$$



USA.gov is the U.S. government's official web portal to all federal, state and local government web resources and services.